sat.trackr.live / text

‹ back to catalog

STARLINK-30095

NORAD 56289 · 2023-056D

PAYLOAD ACTIVE UNKNOWN

§ Identity

Operator
Country
US
Launch date
2023-04-19
Launch site
AFETR
Launch vehicle
Mass (kg)
RCS (m²)

Purposes: comms

External: N2YO · Heavens-Above · Gunter

§ Orbital elements

Epoch: 2026-09-20T10:55:04.733760Z

Period
94.27 min
Inclination
43.0044°
Eccentricity
0.0001406
Mean motion
15.27579884 rev/d
Perigee alt
482.1 km
Apogee alt
484.0 km
Semi-major
6,861.2 km
B*
8.1667e-5
RAAN
163.1042°
Arg perigee
260.2980°
Mean anomaly
99.7713°
Rev number
19,012

§ Raw data

STARLINK-300951 56289U 23056D   26263.45491590  .00001986  00000+0  81667-4 0  99972 56289  43.0044 163.1042 0001406 260.2980  99.7713 15.27579884190127

JSON: /api/v1/satellites/56289 · /tle

For live sub-satellite position, see the globe view (requires WebGL).

§ Visibility from observer

Set your observer location to see the next 7 days of passes ≥ 10°. The values pass through the URL so the page stays shareable.

No JS? Fill the form by hand. The geolocation button needs JavaScript.